User: anonymous
Location: Hale Hill Observatory
(39.3806°N, 86.8431°W)
Time: 13:27:36
(UTC-04:00)
Language:

Cosmos 990 Rocket - Orbit

View from above orbital plane
View from above orbital plane
View from above satellite
View from above satellite

Ground track
Ground track

The orbit data is extracted from the following two-line orbital elements,

1 10677U 78019B   14108.53965074  .00000438  00000-0  14855-3 0  3826
2 10677 074.0375 276.0619 0016299 274.8772 085.0522 14.39611209896162
Epoch (UTC): 18 April 2014 12:57:05
Eccentricity: 0.0016299
inclination: 74.0375°
perigee height: 748 km
apogee height: 771 km
right ascension of ascending node: 276.0619°
argument of perigee: 274.8772°
revolutions per day: 14.39611209
mean anomaly at epoch: 85.0522°
orbit number at epoch: 89616

The dashed part of the orbit path shows where the satellite is in the earth's shadow,  

DLR